Location: Alsip
(41.6689°N, 87.7387°W)
Time: 15:13:29
(UTC+00:00)

Sich 1 - Pass Details

Date: 14 July 2020
Orbit: 595 x 624 km, 82.5° (Epoch: 13 August)

Event Time Altitude Azimuth Distance (km) Brightness Sun altitude
Exits shadow 06:01:22 56° 330° (NNW) 727 3.5 -26.7°
Drops below altitude 10° 06:05:01 10° 3° (N) 1,978 6.7 -26.7°
Sets 06:07:17 0° 6° (N) 2,892 7.8 -26.7°
